Location: Chandolas
(44.4033°N, 4.2533°E)
Time: 21:01:08
(UTC+00:00)

Cosmos 2369 - Visible Passes

Search period start: 21 February 2020 00:00
Search period end: 02 March 2020 00:00
Orbit: 839 x 856 km, 71.0° (Epoch: 21 February)

Date Brightness Start Highest point End Pass type
(mag) Time Alt. Az. Time Alt. Az. Time Alt. Az.
22 Feb 5.7 06:00:50 10° N 06:05:37 27° NE 06:10:21 10° ESE visible
23 Feb 5.7 05:47:36 10° N 05:52:21 26° NE 05:57:04 10° ESE visible
24 Feb 5.8 05:34:22 10° N 05:39:06 26° NE 05:43:46 10° ESE visible
25 Feb 5.8 05:21:09 10° N 05:25:51 26° NE 05:30:30 10° ESE visible
26 Feb 5.8 05:07:55 10° N 05:12:36 25° NE 05:17:13 10° ESE visible
27 Feb 5.8 04:54:42 10° N 04:59:20 25° NE 05:03:56 10° ESE visible
28 Feb 5.9 04:41:29 10° N 04:46:04 25° NE 04:50:38 10° ESE visible
29 Feb 5.9 04:28:14 10° N 04:32:49 24° NE 04:37:21 10° ESE visible
29 Feb 5.8 19:22:21 10° SSE 19:22:44 12° SSE 19:22:44 12° SSE visible
01 Mar 5.9 04:15:01 10° N 04:19:34 24° NE 04:24:03 10° ESE visible
01 Mar 4.6 19:09:09 10° SSE 19:12:48 28° SE 19:12:48 28° SE visible
01 Mar 5.6 20:52:43 10° SW 21:06:04 - NNE 20:55:00 23° WSW visible
